Regional Weather Roundup
Issued by NWS Kansas City/Pleasant Hill, MO

Home | Current Version | Previous Version | Text Only | Print | Product List | Glossary On
Versions: 1 2 3 4 5 6 7 8 9 10 11 12 13 14 15 16 17 18 19 20 21 22 23 24 25 26 27 28
000
ASUS43 KEAX 291710
RWREAX

WEATHER ROUNDUP FOR EASTERN KANSAS AND NORTHWEST MISSOURI
NATIONAL WEATHER SERVICE KANSAS CITY/PLEASANT HILL MO
1200 PM CDT MON MAY 29 2017

KSZ040-057-103>105-MOZ028-029-037-043-291800-
...KANSAS CITY METROPOLITAN AREA...

CITY           SKY/WX    TMP DP  RH WIND       PRES   REMARKS
K.C. INTL      SUNNY     76  54  46 NW12      30.02R
K.C. DOWNTOWN  SUNNY     77  52  41 W10       30.00R
LEES SUMMIT    SUNNY     76  51  41 NW13      30.01R
OLATHE - IXD   SUNNY     76  52  43 NW13      30.02R
OLATHE - OJC   SUNNY     76  52  43 NW10G18   30.02R
LAWRENCE       SUNNY     77  54  44 NW10G20   30.02R

$$

MOZ001>008-011>017-020>025-030>033-038>040-044>046-053-054-291800-
...NORTHERN AND CENTRAL MISSOURI...

CITY           SKY/WX    TMP DP  RH WIND       PRES   REMARKS
ST. JOSEPH     SUNNY     77  49  37 VRB6      30.01R
MOSBY          SUNNY     75  50  41 NW12      30.00R
WARRENSBURG    SUNNY     77  52  41 W13       29.99R
WHITEMAN AFB   SUNNY     79  53  41 NW15G23   29.97R
CLINTON        MOSUNNY   77  57  50 W12       30.00R
SEDALIA        MOSUNNY   80  59  48 W15G21    29.98R
WARSAW         NOT AVBL
CHILLICOTHE      N/A     74  52  46 VRB5      29.99R
KIRKSVILLE     MOSUNNY   72  50  45 VRB6      29.98R

$$

MOZ041-047>049-056>058-063>065-088>090-097-291800-
...EASTERN AND SOUTHERN MISSOURI...

CITY           SKY/WX    TMP DP  RH WIND       PRES   REMARKS
ST. LOUIS INTL MOSUNNY   83  48  29 SW12      29.96S
SPIRIT OF STL  MOSUNNY   81  51  35 W12       29.95F
COLUMBIA       SUNNY     81  57  43 S12       29.96S
JEFFERSON CITY MOSUNNY   81  56  42 S12       29.95S
ROLLA          SUNNY     77  59  53 SW12      29.99S
OSAGE BEACH    MOSUNNY   79  57  46 SW7       30.00S
SPRINGFIELD    SUNNY     80  55  42 W9        30.04R
BRANSON        PTSUNNY   77  59  53 SW9       30.07S
JOPLIN         SUNNY     80  57  45 W8        30.05S
WEST PLAINS    SUNNY     79  59  50 W7        30.05S

$$

IAZ060-094-KSZ022-034>040-054-083-096-NEZ052-066-093-291800-
...KANSAS...SOUTHEAST NEBRASKA AND IOWA...

CITY           SKY/WX    TMP DP  RH WIND       PRES   REMARKS
TOPEKA         SUNNY     77  56  48 N9        30.03R
MANHATTAN      SUNNY     76  52  43 NE5       30.05R
EMPORIA        SUNNY     78  53  41 N8        30.04S
CHANUTE        SUNNY     81  53  37 W7        30.04R
WICHITA        MOSUNNY   78  51  38 N9        30.06S
OMAHA          MOSUNNY   74  43  32 NW17G24   30.00R
LINCOLN        SUNNY     74  45  35 NW14G20   30.05R
LAMONI         SUNNY     73  47  39 NW10G18   29.99R
DES MOINES     MOSUNNY   72  44  36 W16G29    29.94S

$$





USA.gov is the U.S. government's official web portal to all federal, state and local government web resources and services.